Location: Prague
(50.0830°N, 14.4670°E)
Time: 09:29:34
(UTC+02:00)

RS-15 - Visible Passes

Search period start: 19 April 2024 00:00
Search period end: 29 April 2024 00:00
Orbit: 1895 x 2150 km, 64.8° (Epoch: 18 April)

Date Brightness Start Highest point End Pass type
(mag) Time Alt. Az. Time Alt. Az. Time Alt. Az.
19 Apr 9.0 01:16:42 10° W 01:27:37 42° NNW 01:38:06 10° NE visible
19 Apr 9.1 03:32:35 10° NW 03:43:20 43° NNE 03:53:39 10° E visible
19 Apr 8.0 22:25:07 10° SW 22:37:07 90° WNW 22:48:35 10° NE visible
20 Apr 8.9 00:39:51 10° W 00:50:59 45° NNW 01:01:41 10° NE visible
20 Apr 9.2 02:56:02 10° WNW 03:06:39 40° N 03:16:53 10° E visible
20 Apr 8.4 05:09:57 10° NW 05:21:15 71° NE 05:32:09 10° SE visible
20 Apr 8.0 21:49:09 10° SSW 22:01:05 77° SE 22:12:29 10° NE visible
21 Apr 8.8 00:03:03 10° WSW 00:14:26 50° NNW 00:25:22 10° NE visible
21 Apr 9.2 02:19:22 10° WNW 02:29:57 39° N 02:40:06 10° ENE visible
21 Apr 8.6 04:33:45 10° NW 04:44:58 61° NE 04:55:46 10° ESE visible
21 Apr 8.1 21:13:27 10° SSW 21:25:09 64° ESE 21:36:21 10° NE visible
21 Apr 8.6 23:26:21 10° WSW 23:37:59 57° NW 23:49:06 10° NE visible
22 Apr 9.2 01:42:37 10° WNW 01:53:13 38° N 02:03:24 10° ENE visible
22 Apr 8.8 03:57:30 10° NW 04:08:34 53° NNE 04:19:13 10° ESE visible
22 Apr 8.2 20:37:59 10° S 20:49:19 52° ESE 21:00:11 10° NE visible
22 Apr 8.4 22:49:47 10° WSW 23:01:36 66° NW 23:12:55 10° NE visible
23 Apr 9.2 01:05:47 10° WNW 01:16:28 39° N 01:26:46 10° ENE visible
23 Apr 8.9 03:21:10 10° NW 03:32:04 47° NNE 03:42:33 10° E visible
23 Apr 8.2 22:13:24 10° SW 22:25:21 76° NW 22:36:46 10° NE visible
24 Apr 9.1 00:28:54 10° W 00:39:47 41° NNW 00:50:14 10° NE visible
24 Apr 9.1 02:44:44 10° NW 02:55:29 43° NNE 03:05:49 10° E visible
24 Apr 8.1 04:58:12 10° NW 05:09:30 85° NE 05:20:27 10° SE visible
24 Apr 8.1 21:37:12 10° SW 21:49:12 88° NW 22:00:40 10° NE visible
24 Apr 9.0 23:52:03 10° W 00:03:09 45° NNW 00:13:47 10° NE visible
25 Apr 9.2 02:08:12 10° NW 02:18:49 40° NNE 02:29:02 10° E visible
25 Apr 8.3 04:22:03 10° NW 04:33:21 72° NE 04:44:15 10° SE visible
25 Apr 8.1 21:01:13 10° SSW 21:13:09 79° SE 21:24:33 10° NE visible
25 Apr 8.9 23:15:14 10° WSW 23:26:35 50° NNW 23:37:27 10° NE visible
26 Apr 9.2 01:31:33 10° WNW 01:42:07 39° N 01:52:17 10° ENE visible
26 Apr 8.5 03:45:51 10° NW 03:57:04 62° NE 04:07:53 10° ESE visible
26 Apr 8.7 22:38:31 10° WSW 22:50:05 56° NNW 23:01:12 10° NE visible
27 Apr 9.2 00:54:48 10° WNW 01:05:23 38° N 01:15:33 10° ENE visible
27 Apr 8.7 03:09:36 10° NW 03:20:41 54° NNE 03:31:22 10° ESE visible
27 Apr 8.5 22:01:56 10° WSW 22:13:43 64° NW 22:25:00 10° NE visible
28 Apr 9.2 00:17:59 10° WNW 00:28:39 39° N 00:38:54 10° ENE visible
28 Apr 8.9 02:33:17 10° NW 02:44:12 48° NNE 02:54:42 10° E visible
28 Apr 7.9 04:46:25 10° NW 04:57:37 80° SW 05:08:29 10° SSE visible
28 Apr 8.4 21:25:31 10° SW 21:37:27 74° NW 21:48:50 10° NE visible
